Location: Haram ta Haram Freeway
(35.0583°N, 51.4202°E)
Time: 20:29:48
(UTC+04:30)

JUGNU - Visible Passes

Search period start: 13 June 2021 00:00
Search period end: 23 June 2021 00:00
Orbit: 836 x 864 km, 20.0° (Epoch: 12 June)

Date Brightness Start Highest point End Pass type
(mag) Time Alt. Az. Time Alt. Az. Time Alt. Az.
13 Jun ? 04:39:25 11° SSW 04:41:48 13° S 04:44:33 10° SE visible
14 Jun ? 04:25:02 13° S 04:26:31 14° S 04:29:29 10° SE visible
15 Jun ? 04:10:41 15° S 04:11:13 15° S 04:14:23 10° SE visible
16 Jun ? 03:56:21 15° SSE 03:56:21 15° SSE 03:59:15 10° SE visible
17 Jun ? 03:42:03 15° SSE 03:42:03 15° SSE 03:44:04 10° SE visible
18 Jun ? 03:27:49 13° SSE 03:27:49 13° SSE 03:28:53 10° SE visible
18 Jun ? 05:10:00 10° SW 05:13:35 17° S 05:17:11 10° SSE visible
19 Jun ? 03:13:37 10° SE 03:13:37 10° SE 03:13:41 10° SE visible
19 Jun ? 04:55:29 12° SW 04:58:18 16° S 05:01:48 10° SSE visible
20 Jun ? 04:41:22 14° SSW 04:43:00 16° S 04:46:23 10° SSE visible
21 Jun ? 04:27:22 15° SSW 04:27:43 15° S 04:30:57 10° SSE visible
22 Jun ? 04:13:27 14° S 04:13:27 14° S 04:15:29 10° SSE visible
